Overview Statistics Trail Chart Weather Telemetry Raw packets
 

This is the latest recevied weather packets stored in our database for station/object 4S6DRJ-13. If no packets are shown the sender has not sent any weather packets the latest 10 day(s).

<< 134 135 136 137 138 139 140 >>
Time Temp. Humidity Pressure Rain* Wind** Luminosity Snow
1788258571 30.56° C 73% 1007.7 hPa 0 mm 1.34 m/s, 289° 611 W/m² -
1788258510 30.56° C 72% 1007.9 hPa 0 mm 1.34 m/s, 125° 252 W/m² -
1788258449 30.56° C 72% 1007.9 hPa 0 mm 0.89 m/s, 325° 240 W/m² -
1788258388 30.56° C 72% 1007.8 hPa 0 mm 2.24 m/s, 241° 254 W/m² -
1788258327 30.56° C 73% 1007.8 hPa 0 mm 1.79 m/s, 233° 284 W/m² -
1788258266 30.56° C 73% 1007.7 hPa 0 mm 1.79 m/s, 308° 278 W/m² -
1788258205 30.56° C 73% 1007.9 hPa 0 mm 2.68 m/s, 232° 365 W/m² -
1788258144 30.56° C 73% 1007.7 hPa 0 mm 2.68 m/s, 295° 558 W/m² -
1788258083 30.56° C 72% 1007.7 hPa 0 mm 2.68 m/s, 190° 234 W/m² -
1788258021 30.56° C 71% 1007.7 hPa 0 mm 3.58 m/s, 131° 246 W/m² -
1788257961 30.56° C 73% 1007.7 hPa 0 mm 0.89 m/s, 137° 240 W/m² -
1788257900 30.56° C 72% 1007.8 hPa 0 mm 3.13 m/s, 290° 298 W/m² -
1788257839 30.56° C 72% 1007.8 hPa 0 mm 1.79 m/s, 270° 624 W/m² -
1788257780 31.11° C 71% 1007.8 hPa 0 mm 2.24 m/s, 30° 324 W/m² -
1788257717 31.11° C 72% 1007.7 hPa 0 mm 1.34 m/s, 211° 278 W/m² -
1788257656 30.56° C 72% 1007.7 hPa 0 mm 1.34 m/s, 315° 586 W/m² -
1788257595 30.56° C 71% 1007.6 hPa 0 mm 1.34 m/s, 213° 572 W/m² -
1788257534 30.56° C 71% 1007.8 hPa 0 mm 1.79 m/s, 350° 226 W/m² -
1788257473 30.56° C 71% 1007.7 hPa 0 mm 0 m/s 503 W/m² -
1788257412 31.11° C 70% 1007.8 hPa 0 mm 2.24 m/s, 230° 741 W/m² -
1788257351 31.11° C 70% 1007.7 hPa 0 mm 2.68 m/s, 213° 305 W/m² -
1788257290 31.11° C 70% 1007.8 hPa 0 mm 0.89 m/s, 229° 430 W/m² -
1788257229 31.11° C 70% 1007.8 hPa 0 mm 1.79 m/s, 235° 308 W/m² -
1788257168 30.56° C 71% 1007.8 hPa 0 mm 1.34 m/s, 162° 720 W/m² -
1788257106 30.56° C 72% 1007.7 hPa 0 mm 0.45 m/s, 293° 232 W/m² -

* Rain latest hour (hover to see other rain measurements)
** Current wind speed in m/s (hover to see current wind gust speed)